Weather in Sukhotskoye

Russia / Republic of North Ossetia — Alania     43°40′29″N   44°26′36″E
temp.,
°C
wind,
m/s
gust,
m/s
humid.,
%
clouds,
%
prec.,
mm/h
press.,
hPa
HPBL,
m
7 march, sun
sun700:00+9wnw2354100 0.0 101424
03:00+6nw8137598 0.0 10181034
06:00+1nw71068100 0.1 10231251
09:00+1wnw4666100 0.2 10251005
12:00+3nnw3433100 0.0 10241411
15:00+5n222851 0.0 10221467
18:00+3ene22382 0.0 102346
21:00+1e34441 0.0 1023110
8 march, mon
mon800:000ese33490 0.0 102280
03:000e115017 0.0 102222
06:00−1ese115063 0.0 102221
09:00+2e014052 0.0 1020350
12:00+5ene233583 0.0 10181152
15:00+6ne333891 0.0 10171429
18:00+5ne1254100 0.0 101740
21:00+4se1265100 0.0 101927
9 march, tue
tue900:00+2ssw117088 0.0 101822
03:00+1w227293 0.0 101824
06:000w227574 0.0 101831
09:00+3wsw215876 0.0 1017335
12:00+7ssw11430 0.0 10161348
15:00+8wnw24380 0.0 10161951
18:00+7nw2349100 0.0 101876
21:00+4nw3771100 0.3 1021742
10 march, wed
wed1000:00+3nw2386100 0.3 1022400
03:00+2wnw3588100 0.8 1023384
06:000wnw4772100 0.2 1024510
09:00+2nw355498 0.2 10241003
12:00+4nnw3446100 0.0 10231417
15:00+5n2243100 0.0 10211493
18:00+3ne3552100 0.0 1021519
21:00+2ene4753100 0.0 1022613
11 march, thu
thu1100:000ene7955100 0.1 1020891
03:00−2ene71094100 1.3 1020610
06:00−3ene71094100 1.8 1020662
09:00−4ene71193100 3.8 1020775
12:00−3ene81092100 1.6 1019877
15:00−5ene81192100 3.4 1019852
18:00−7ene61095100 1.8 1021737
21:00−7ene5995100 3.8 1023649